Location: Zagreb
(45.8000°N, 16.0000°E)
Time: 12:04:29
(UTC+01:00)

Vanguard 1 Rocket - Pass Details

Date: 05 October 2020
Orbit: 656 x 4221 km, 34.3° (Epoch: 28 October)

Event Time Altitude Azimuth Distance (km) Brightness Sun altitude
Rises 21:59:40 0° 274° (W) 5,946 12.3 -36.0°
Reaches altitude 10° 22:03:15 10° 268° (W) 5,346 11.8 -36.5°
Maximum altitude 22:19:05 42° 205° (SSW) 4,597 10.7 -38.6°
Enters shadow 22:24:26 38° 180° (S) 5,042 10.7 -39.3°
Drops below altitude 10° 22:41:48 10° 145° (SE) 7,411 - -41.5°
Sets 22:48:04 0° 139° (SE) 8,342 - -42.2°
